Kosmos-2492

operational
NORAD ID: 39620 Int'l Des: 2014-012 Owner: VVKO/IACG Country: RU
MEOCIRCULAR

Kosmos-2492について

説明を読み込み中...

リアルタイム位置

3D地球を読み込み中...

次回通過

高度履歴

Altitude vs Time

uPlot chart will show altitude changes over time

軌道要素

1 39620U 14012A 25350.32692648 -.00000068 00000-0 00000+0 0 9997
2 39620 65.4058 320.1490 0014254 313.1590 46.7158 2.13103282 91347
Epoch: Dec 16, 2025 • Age: 16 hours

現在のステータス

高度 19169.7 km
速度 3.95 km/s
衛星直下点 37.73°N, 42.24°E
打ち上げ日 Mar 23, 2014
運用期間 11.7 years
タイプ other

技術仕様

分類 Payload
質量 1450.00 kg
乾燥質量 1200.00 kg
総質量 1450.00 kg
長さ 4.00 m
直径 1.50 m
スパン 7.80 m
形状 Cyl + Ant + 2 Pan
製造者 RESH
バスタイプ Uragan
フェーズステータス In Orbit
所有者/国 VVKO/IACG/RU

大規模コンステレーション

Loading constellations...